| time (UTC) | temp F | wind direction | speed MPH | gust MPH | rain 1hr in | rain 24hr in | rain mn in | humidity % | barometer mb |
| 20260504110506 | 48 | 186 | 0.0 | 2.0 | 0.00 | 0.00 | 0.00 | 71 | 1015.4 |
| 20260504100503 | 48 | 185 | 0.0 | 0.0 | 0.00 | 0.00 | 0.00 | 73 | 1015.2 |
| 20260504082004 | 45 | 263 | 0.0 | 2.0 | 0.00 | 0.00 | 0.00 | 80 | 1015.5 |
| 20260504081525 | 45 | 262 | 0.0 | 2.0 | 0.00 | 0.00 | 0.00 | 81 | 1015.5 |
| 20260504081013 | 44 | 231 | 0.0 | 1.0 | 0.00 | 0.00 | 0.00 | 81 | 1015.5 |
| 20260504080508 | 44 | 235 | 0.0 | 0.0 | 0.00 | 0.00 | 0.00 | 81 | 1015.4 |
| 20260504050503 | 41 | 224 | 0.0 | 0.0 | 0.00 | 0.00 | 0.00 | 80 | 1015.8 |
| 20260504050022 | 41 | 224 | 0.0 | 0.0 | 0.00 | 0.00 | 0.00 | 80 | 1015.8 |
| 20260504045507 | 40 | 224 | 0.0 | 0.0 | 0.00 | 0.00 | 0.00 | 79 | 1015.7 |
| 20260504045009 | 41 | 224 | 0.0 | 0.0 | 0.00 | 0.00 | 0.00 | 79 | 1015.7 |
| 20260504044522 | 41 | 224 | 0.0 | 0.0 | 0.00 | 0.00 | 0.00 | 79 | 1015.8 |
| 20260504044010 | 41 | 224 | 0.0 | 0.0 | 0.00 | 0.00 | 0.00 | 79 | 1015.8 |
| 20260504043509 | 41 | 224 | 0.0 | 0.0 | 0.00 | 0.00 | 0.00 | 78 | 1015.7 |
| 20260504043024 | 41 | 224 | 0.0 | 0.0 | 0.00 | 0.00 | 0.00 | 78 | 1015.6 |
| 20260504042508 | 41 | 224 | 0.0 | 0.0 | 0.00 | 0.00 | 0.00 | 78 | 1015.6 |
| 20260504042010 | 41 | 224 | 0.0 | 0.0 | 0.00 | 0.00 | 0.00 | 77 | 1015.6 |
| 20260504041527 | 41 | 224 | 0.0 | 0.0 | 0.00 | 0.00 | 0.00 | 75 | 1015.7 |
| 20260504041004 | 41 | 224 | 0.0 | 0.0 | 0.00 | 0.00 | 0.00 | 75 | 1015.7 |
| 20260504040503 | 41 | 224 | 0.0 | 0.0 | 0.00 | 0.00 | 0.00 | 75 | 1015.7 |
| 20260504040035 | 41 | 224 | 0.0 | 0.0 | 0.00 | 0.00 | 0.00 | 75 | 1015.7 |
| 20260504035508 | 42 | 224 | 0.0 | 0.0 | 0.00 | 0.00 | 0.00 | 75 | 1015.7 |
| 20260504035008 | 42 | 225 | 0.0 | 0.0 | 0.00 | 0.00 | 0.00 | 75 | 1015.6 |
| 20260504034523 | 42 | 224 | 0.0 | 0.0 | 0.00 | 0.00 | 0.00 | 75 | 1015.6 |
| 20260504034004 | 42 | 224 | 0.0 | 0.0 | 0.00 | 0.00 | 0.00 | 74 | 1015.6 |
| 20260504033508 | 42 | 224 | 0.0 | 0.0 | 0.00 | 0.00 | 0.00 | 74 | 1015.5 |
| 20260504033026 | 42 | 224 | 0.0 | 0.0 | 0.00 | 0.00 | 0.00 | 74 | 1015.6 |
| 20260504032503 | 42 | 225 | 0.0 | 0.0 | 0.00 | 0.00 | 0.00 | 72 | 1015.5 |
| 20260504032005 | 43 | 224 | 0.0 | 0.0 | 0.00 | 0.00 | 0.00 | 71 | 1015.5 |
| 20260504031510 | 43 | 224 | 0.0 | 0.0 | 0.00 | 0.00 | 0.00 | 71 | 1015.5 |
| 20260504031004 | 43 | 224 | 0.0 | 0.0 | 0.00 | 0.00 | 0.00 | 70 | 1015.4 |
| 20260504030503 | 43 | 224 | 0.0 | 0.0 | 0.00 | 0.00 | 0.00 | 70 | 1015.4 |
| 20260504030013 | 43 | 224 | 0.0 | 0.0 | 0.00 | 0.00 | 0.00 | 69 | 1015.3 |
| 20260504025504 | 44 | 224 | 0.0 | 0.0 | 0.00 | 0.00 | 0.00 | 69 | 1015.4 |
| 20260504025006 | 44 | 224 | 0.0 | 0.0 | 0.00 | 0.00 | 0.00 | 68 | 1015.3 |
| 20260504024514 | 44 | 224 | 0.0 | 1.0 | 0.00 | 0.00 | 0.00 | 68 | 1015.3 |
| 20260504024004 | 44 | 224 | 0.0 | 1.0 | 0.00 | 0.00 | 0.00 | 67 | 1015.4 |
| 20260504023502 | 45 | 179 | 0.0 | 0.0 | 0.00 | 0.00 | 0.00 | 66 | 1015.2 |
| 20260504023006 | 45 | 179 | 0.0 | 0.0 | 0.00 | 0.00 | 0.00 | 64 | 1015.1 |
| 20260504022504 | 45 | 179 | 0.0 | 0.0 | 0.00 | 0.00 | 0.00 | 63 | 1015.2 |
| 20260504022002 | 46 | 179 | 0.0 | 0.0 | 0.00 | 0.00 | 0.00 | 63 | 1015.3 |
| 20260504021504 | 46 | 179 | 0.0 | 0.0 | 0.00 | 0.00 | 0.00 | 62 | 1015.3 |
| 20260504021005 | 46 | 179 | 0.0 | 0.0 | 0.00 | 0.00 | 0.00 | 61 | 1015.2 |
| 20260504020504 | 46 | 179 | 0.0 | 0.0 | 0.00 | 0.00 | 0.00 | 60 | 1015.2 |
| 20260504020011 | 47 | 179 | 0.0 | 0.0 | 0.00 | 0.00 | 0.00 | 60 | 1015.1 |
| 20260504015505 | 47 | 179 | 0.0 | 0.0 | 0.00 | 0.00 | 0.00 | 60 | 1015.1 |
| 20260504015007 | 47 | 179 | 0.0 | 0.0 | 0.00 | 0.00 | 0.00 | 59 | 1015.1 |
| 20260504014522 | 48 | 179 | 0.0 | 0.0 | 0.00 | 0.00 | 0.00 | 58 | 1015.0 |
| 20260504014006 | 48 | 179 | 0.0 | 0.0 | 0.00 | 0.00 | 0.00 | 56 | 1015.0 |
| 20260504013505 | 48 | 179 | 0.0 | 0.0 | 0.00 | 0.00 | 0.00 | 56 | 1015.0 |
| 20260504013017 | 49 | 179 | 0.0 | 0.0 | 0.00 | 0.00 | 0.00 | 55 | 1015.0 |
| 20260504012502 | 49 | 179 | 0.0 | 0.0 | 0.00 | 0.00 | 0.00 | 54 | 1015.0 |
| 20260504012004 | 50 | 179 | 0.0 | 0.0 | 0.00 | 0.00 | 0.00 | 53 | 1014.9 |
| 20260504011504 | 50 | 179 | 0.0 | 0.0 | 0.00 | 0.00 | 0.00 | 51 | 1014.9 |
| 20260504011003 | 51 | 179 | 0.0 | 0.0 | 0.00 | 0.00 | 0.00 | 50 | 1014.8 |
| 20260504010503 | 51 | 179 | 0.0 | 0.0 | 0.00 | 0.00 | 0.00 | 50 | 1014.8 |
| 20260504010009 | 52 | 179 | 0.0 | 0.0 | 0.00 | 0.00 | 0.00 | 49 | 1014.8 |
| 20260504005504 | 52 | 179 | 0.0 | 0.0 | 0.00 | 0.00 | 0.00 | 49 | 1014.8 |
| 20260504005005 | 53 | 179 | 0.0 | 0.0 | 0.00 | 0.00 | 0.00 | 48 | 1014.8 |
| 20260504004514 | 53 | 179 | 0.0 | 0.0 | 0.00 | 0.00 | 0.00 | 46 | 1014.7 |
| 20260504004005 | 53 | 179 | 0.0 | 0.0 | 0.00 | 0.00 | 0.00 | 44 | 1014.8 |
| 20260504003507 | 54 | 179 | 0.0 | 0.0 | 0.00 | 0.00 | 0.00 | 43 | 1014.7 |
| 20260504003018 | 55 | 179 | 0.0 | 0.0 | 0.00 | 0.00 | 0.00 | 42 | 1014.6 |
| 20260504002506 | 55 | 179 | 0.0 | 0.0 | 0.00 | 0.00 | 0.00 | 40 | 1014.5 |
| 20260504002005 | 56 | 179 | 0.0 | 0.0 | 0.00 | 0.00 | 0.00 | 40 | 1014.4 |
| 20260504001518 | 56 | 179 | 0.0 | 0.0 | 0.00 | 0.00 | 0.00 | 39 | 1014.4 |
| 20260504001002 | 57 | 179 | 0.0 | 0.0 | 0.00 | 0.00 | 0.00 | 38 | 1014.4 |
| 20260504000504 | 57 | 179 | 0.0 | 0.0 | 0.00 | 0.00 | 0.00 | 37 | 1014.4 |
| 20260504000007 | 58 | 179 | 0.0 | 1.0 | 0.00 | 0.00 | 0.00 | 36 | 1014.3 |
| 20260503235502 | 58 | 179 | 0.0 | 2.0 | 0.00 | 0.00 | 0.00 | 35 | 1014.3 |
| 20260503235005 | 59 | 238 | 0.0 | 2.0 | 0.00 | 0.00 | 0.00 | 35 | 1014.3 |
| 20260503234510 | 59 | 289 | 0.0 | 0.0 | 0.00 | 0.00 | 0.00 | 34 | 1014.2 |
| 20260503234003 | 59 | 289 | 0.0 | 2.0 | 0.00 | 0.00 | 0.00 | 33 | 1014.1 |
| 20260503233503 | 60 | 289 | 0.0 | 2.0 | 0.00 | 0.00 | 0.00 | 34 | 1014.1 |
| 20260503233020 | 60 | 284 | 0.0 | 2.0 | 0.00 | 0.00 | 0.00 | 32 | 1014.1 |
| 20260503232507 | 60 | 5 | 0.0 | 3.0 | 0.00 | 0.00 | 0.00 | 32 | 1014.1 |
| 20260503232008 | 60 | 173 | 0.0 | 8.0 | 0.00 | 0.00 | 0.00 | 31 | 1014.0 |
| 20260503231518 | 61 | 289 | 3.0 | 8.0 | 0.00 | 0.00 | 0.00 | 30 | 1014.0 |
| 20260503231007 | 61 | 276 | 0.0 | 5.0 | 0.00 | 0.00 | 0.00 | 31 | 1014.0 |
| 20260503230508 | 61 | 36 | 1.0 | 5.0 | 0.00 | 0.00 | 0.00 | 30 | 1014.0 |
| 20260503230003 | 62 | 289 | 2.0 | 4.0 | 0.00 | 0.00 | 0.00 | 29 | 1014.0 |
| 20260503225503 | 62 | 330 | 0.0 | 7.0 | 0.00 | 0.00 | 0.00 | 28 | 1014.0 |
| 20260503225004 | 62 | 263 | 2.0 | 7.0 | 0.00 | 0.00 | 0.00 | 28 | 1014.0 |
| 20260503224509 | 62 | 5 | 1.0 | 12.0 | 0.00 | 0.00 | 0.00 | 28 | 1014.1 |
| 20260503224003 | 62 | 105 | 1.0 | 12.0 | 0.00 | 0.00 | 0.00 | 28 | 1014.1 |
| 20260503223503 | 62 | 14 | 2.0 | 7.0 | 0.00 | 0.00 | 0.00 | 29 | 1014.1 |
| 20260503223014 | 63 | 34 | 2.0 | 8.0 | 0.00 | 0.00 | 0.00 | 28 | 1014.1 |
| 20260503222503 | 63 | 250 | 3.0 | 8.0 | 0.00 | 0.00 | 0.00 | 30 | 1014.0 |
| 20260503222008 | 63 | 296 | 3.0 | 9.0 | 0.00 | 0.00 | 0.00 | 27 | 1014.0 |
| 20260503221518 | 63 | 327 | 0.0 | 11.0 | 0.00 | 0.00 | 0.00 | 29 | 1014.1 |
| 20260503221009 | 62 | 250 | 2.0 | 11.0 | 0.00 | 0.00 | 0.00 | 28 | 1014.1 |
| 20260503220508 | 63 | 44 | 6.0 | 11.0 | 0.00 | 0.00 | 0.00 | 27 | 1014.2 |
| 20260503220020 | 63 | 331 | 3.0 | 14.0 | 0.00 | 0.00 | 0.00 | 28 | 1014.2 |
| 20260503215507 | 63 | 34 | 2.0 | 14.0 | 0.00 | 0.00 | 0.00 | 27 | 1014.2 |
| 20260503215006 | 63 | 298 | 3.0 | 14.0 | 0.00 | 0.00 | 0.00 | 28 | 1014.3 |
| 20260503214507 | 63 | 280 | 3.0 | 14.0 | 0.00 | 0.00 | 0.00 | 28 | 1014.2 |
| 20260503214002 | 63 | 13 | 2.0 | 12.0 | 0.00 | 0.00 | 0.00 | 27 | 1014.2 |
| 20260503213508 | 63 | 298 | 6.0 | 12.0 | 0.00 | 0.00 | 0.00 | 27 | 1014.1 |
| 20260503213017 | 63 | 352 | 3.0 | 11.0 | 0.00 | 0.00 | 0.00 | 27 | 1014.1 |
| 20260503212503 | 63 | 360 | 2.0 | 13.0 | 0.00 | 0.00 | 0.00 | 27 | 1014.1 |
| 20260503212008 | 63 | 9 | 3.0 | 13.0 | 0.00 | 0.00 | 0.00 | 28 | 1014.1 |
| 20260503211517 | 64 | 298 | 4.0 | 13.0 | 0.00 | 0.00 | 0.00 | 29 | 1014.2 |
| 20260503211011 | 63 | 5 | 3.0 | 17.0 | 0.00 | 0.00 | 0.00 | 27 | 1014.2 |
| 20260503210508 | 64 | 325 | 5.0 | 17.0 | 0.00 | 0.00 | 0.00 | 28 | 1014.2 |
| 20260503210022 | 63 | 259 | 1.0 | 11.0 | 0.00 | 0.00 | 0.00 | 30 | 1014.1 |
| 20260503205512 | 63 | 215 | 2.0 | 11.0 | 0.00 | 0.00 | 0.00 | 28 | 1014.1 |
| 20260503205007 | 63 | 315 | 4.0 | 12.0 | 0.00 | 0.00 | 0.00 | 28 | 1014.2 |
| 20260503204527 | 63 | 14 | 4.0 | 12.0 | 0.00 | 0.00 | 0.00 | 28 | 1014.3 |
| 20260503204016 | 63 | 301 | 4.0 | 13.0 | 0.00 | 0.00 | 0.00 | 29 | 1014.2 |
| 20260503203503 | 63 | 225 | 4.0 | 13.0 | 0.00 | 0.00 | 0.00 | 28 | 1014.3 |
| 20260503203013 | 62 | 93 | 4.0 | 15.0 | 0.00 | 0.00 | 0.00 | 29 | 1014.4 |
| 20260503202506 | 62 | 285 | 7.0 | 15.0 | 0.00 | 0.00 | 0.00 | 29 | 1014.4 |
| 20260503202010 | 62 | 203 | 3.0 | 19.0 | 0.00 | 0.00 | 0.00 | 29 | 1014.4 |
| 20260503201514 | 62 | 18 | 5.0 | 19.0 | 0.00 | 0.00 | 0.00 | 30 | 1014.5 |
| 20260503201003 | 62 | 287 | 4.0 | 12.0 | 0.00 | 0.00 | 0.00 | 31 | 1014.5 |
| 20260503200507 | 62 | 313 | 6.0 | 14.0 | 0.00 | 0.00 | 0.00 | 30 | 1014.6 |
| 20260503200020 | 61 | 9 | 6.0 | 14.0 | 0.00 | 0.00 | 0.00 | 30 | 1014.8 |
| 20260503195507 | 61 | 17 | 1.0 | 8.0 | 0.00 | 0.00 | 0.00 | 32 | 1014.7 |
| 20260503195010 | 61 | 57 | 2.0 | 11.0 | 0.00 | 0.00 | 0.00 | 30 | 1014.8 |
| 20260503194524 | 62 | 352 | 3.0 | 12.0 | 0.00 | 0.00 | 0.00 | 30 | 1015.0 |
| 20260503194008 | 62 | 325 | 3.0 | 12.0 | 0.00 | 0.00 | 0.00 | 30 | 1015.1 |
| 20260503193510 | 62 | 254 | 3.0 | 15.0 | 0.00 | 0.00 | 0.00 | 32 | 1015.1 |
| 20260503193036 | 62 | 292 | 4.0 | 15.0 | 0.00 | 0.00 | 0.00 | 30 | 1015.1 |
| 20260503192502 | 62 | 15 | 2.0 | 14.0 | 0.00 | 0.00 | 0.00 | 32 | 1015.1 |
| 20260503192005 | 61 | 298 | 5.0 | 14.0 | 0.00 | 0.00 | 0.00 | 33 | 1015.2 |
| 20260503191510 | 61 | 360 | 6.0 | 15.0 | 0.00 | 0.00 | 0.00 | 32 | 1015.2 |
| 20260503191010 | 61 | 52 | 6.0 | 15.0 | 0.00 | 0.00 | 0.00 | 32 | 1015.4 |
| 20260503190503 | 61 | 344 | 3.0 | 10.0 | 0.00 | 0.00 | 0.00 | 31 | 1015.5 |
| 20260503190016 | 61 | 331 | 2.0 | 10.0 | 0.00 | 0.00 | 0.00 | 31 | 1015.4 |
| 20260503185509 | 61 | 21 | 3.0 | 15.0 | 0.00 | 0.00 | 0.00 | 31 | 1015.5 |
| 20260503185008 | 61 | 198 | 7.0 | 15.0 | 0.00 | 0.00 | 0.00 | 30 | 1015.4 |
| 20260503184525 | 61 | 277 | 4.0 | 15.0 | 0.00 | 0.00 | 0.00 | 31 | 1015.5 |
| 20260503184010 | 61 | 296 | 5.0 | 15.0 | 0.00 | 0.00 | 0.00 | 32 | 1015.5 |
| 20260503183507 | 60 | 229 | 2.0 | 9.0 | 0.00 | 0.00 | 0.00 | 32 | 1015.7 |
| 20260503183025 | 60 | 352 | 2.0 | 10.0 | 0.00 | 0.00 | 0.00 | 32 | 1015.7 |
| 20260503182509 | 60 | 311 | 3.0 | 11.0 | 0.00 | 0.00 | 0.00 | 31 | 1015.7 |
| 20260503182012 | 60 | 276 | 4.0 | 13.0 | 0.00 | 0.00 | 0.00 | 32 | 1016.0 |
| 20260503181526 | 60 | 9 | 5.0 | 13.0 | 0.00 | 0.00 | 0.00 | 33 | 1015.9 |
| 20260503181003 | 60 | 56 | 3.0 | 14.0 | 0.00 | 0.00 | 0.00 | 32 | 1015.8 |
| 20260503180506 | 60 | 33 | 2.0 | 14.0 | 0.00 | 0.00 | 0.00 | 32 | 1015.8 |
| 20260503180018 | 60 | 347 | 5.0 | 11.0 | 0.00 | 0.00 | 0.00 | 32 | 1016.0 |
| 20260503175510 | 59 | 44 | 3.0 | 16.0 | 0.00 | 0.00 | 0.00 | 32 | 1015.8 |
| 20260503175006 | 58 | 352 | 5.0 | 16.0 | 0.00 | 0.00 | 0.00 | 34 | 1015.8 |
| 20260503174519 | 58 | 278 | 7.0 | 16.0 | 0.00 | 0.00 | 0.00 | 34 | 1016.0 |
| 20260503174006 | 58 | 279 | 9.0 | 16.0 | 0.00 | 0.00 | 0.00 | 33 | 1016.1 |
| 20260503173506 | 59 | 65 | 4.0 | 16.0 | 0.00 | 0.00 | 0.00 | 33 | 1016.1 |
| 20260503173025 | 59 | 26 | 4.0 | 16.0 | 0.00 | 0.00 | 0.00 | 34 | 1016.1 |
| 20260503172510 | 59 | 299 | 4.0 | 10.0 | 0.00 | 0.00 | 0.00 | 32 | 1015.9 |
| 20260503172010 | 58 | 329 | 3.0 | 13.0 | 0.00 | 0.00 | 0.00 | 33 | 1016.1 |
| 20260503171526 | 57 | 316 | 3.0 | 18.0 | 0.00 | 0.00 | 0.00 | 34 | 1016.1 |
| 20260503171008 | 57 | 352 | 3.0 | 18.0 | 0.00 | 0.00 | 0.00 | 33 | 1016.2 |
| 20260503170511 | 58 | 9 | 2.0 | 13.0 | 0.00 | 0.00 | 0.00 | 32 | 1016.3 |
| 20260503151008 | 54 | 275 | 5.0 | 12.0 | 0.00 | 0.00 | 0.00 | 36 | 1016.8 |
| 20260503150508 | 54 | 196 | 3.0 | 12.0 | 0.00 | 0.00 | 0.00 | 37 | 1016.8 |
| 20260503131012 | 49 | 321 | 4.0 | 13.0 | 0.00 | 0.00 | 0.00 | 47 | 1017.2 |
| 20260503130507 | 49 | 319 | 4.0 | 13.0 | 0.00 | 0.00 | 0.00 | 47 | 1017.2 |